Starlink 36210

operational
NORAD ID: 67174 Int'l Des: 2025-303 Owner: SPXS Country: US Constellation: starlink
LEOCIRCULAR

About Starlink 36210

Description loading...

Live Position

Loading 3D Globe...

Upcoming Passes

Altitude History

Altitude vs Time

uPlot chart will show altitude changes over time

Two-Line Element Set

1 67174C 25303M 25352.76645833 .00704140 00000+0 10353-2 0 3529
2 67174 43.0047 61.7907 0007391 286.6005 256.0838 16.03284873 17
Epoch: Dec 18, 2025 • Age: 54 hours

Current Status

Altitude 265.7 km
Velocity 7.75 km/s
Sub-Earth Point 42.20°N, 48.81°W
Launch Date Dec 17, 2025
Age 2 days
Type internet

Technical Details

Classification Payload
Mass 575.00 kg
Dry Mass 530.00 kg
Total Mass 575.00 kg
Length 0.30 m
Diameter 4.10 m
Span 29.00 m
Shape Box + pan
Manufacturer SPXS
Bus Type Starlink V2MO
Phase Status In Orbit
Owner/State SPXS/US

Large Constellations

Loading constellations...